www.pogodaiklimat.ru

Погода и климат >> Архив погоды >> Мексика >> Tuxpan


ПОГОДА в Tuxpan

  • Прогноз погоды в Tuxpan
  • Монитор погоды в Tuxpan
  • Климат города

АРХИВ ПОГОДЫ в Tuxpan

Время (UTC), дата Ветер
(напр.,м/с)
 
Видим.   Явления Облачность Т
(С)
Тd
(С)
f
(%)
Тe
(С)
Тes
(С)
Комфортность P
(гПа)
Po
(гПа)
Тmin
(С)
Tmax
(С)
R
(мм)
R24
(мм)
S
(см)
12 6.12 З 1 1000 м слабая морось 10/6 <50 м
[Frnb As op]
+17.4 +17.1 98 +18 +18 1024.4 1023.2 0.2
15 6.12 СЗ 1 8000 м 10/4 180 м
[Frnb As op]
+18.8 +17.5 92 +21 +22 комфорт 1024.6 1023.4
18 6.12 З 2 8000 м 6/4 420 м
[Cu med, cong Ac trans]
+23.8 +20.5 82 +30 +35 очень
душно
1023.2 1022.0 +17.2 +25.4
21 6.12 СЗ 2 8000 м 8/5 500 м
[Sc diur, vesp As trans]
+24.8 +20.9 79 +31 +33 очень
душно
1020.7 1019.5
00 7.12 СВ 1 8000 м 9/5 200 м
[Sc diur, vesp Ac trans]
+23.4 +21.0 86 +31 +31 очень
душно
1020.8 1019.6 +17.2 +26.4
15 7.12 штиль 0 8000 м дымка {туман} 8/8 90 м
[Cu med, cong]
+22.2 +21.6 96 +29 +30 очень
душно
1022.8 1021.5
00 8.12 ЮВ 1 5000 м 8/8 50 м
[Cu med, cong]
+25.2 +24.9 98 +36 +36 очень
душно
1017.1 1016.0 +20.8 +27.2
03 8.12 ЮВ 1 1000 м 9/9 30 м
[Cu med, cong]
+24.6 +24.3 98 +34 +34 очень
душно
1017.7 1016.5
06 8.12 ЮВ 1 1000 м 5/5 30 м
[Cu med, cong]
+24.0 +23.7 98 +33 +33 очень
душно
1017.5 1016.4 +20.8 +27.2
09 8.12 штиль 0 1000 м 1/1 30 м
[Cu med, cong]
+23.0 +22.7 98 +32 +32 очень
душно
1016.8 1015.6
12 8.12 штиль 0 1000 м дымка 4/4 30 м
[Cu med, cong]
+22.0 +21.7 98 +29 +29 очень
душно
1016.3 1015.1 +20.6 +27.2
15 8.12 СВ 1 8000 м дымка {туман} 6/4 210 м
[Cu med, cong As trans]
+23.0 +21.5 91 +31 +33 очень
душно
1018.5 1017.3
18 8.12 СЗ 2 8000 м 6/5 570 м
[Cu med, cong As trans]
+27.0 +22.6 77 +36 +41 очень
душно
1017.6 1016.4 +20.6 +28.6
21 8.12 СЗ 2 8000 м 8/6 450 м
[Sc diur, vesp As op]
+25.6 +22.1 81 +33 +35 очень
душно
1015.9 1014.8
00 9.12 С 3 7000 м 10/6 200 м
[Sc As op]
+23.0 +20.9 88 +30 +30 очень
душно
1017.9 1016.8 +20.6 +29.0
03 9.12 С 2 1000 м 10/6 30 м
[Sc As op]
+21.0 +20.7 98 +27 +27 душно 1020.2 1019.1
06 9.12 С 2 1000 м 10/5 30 м
[Sc As op]
+20.0 +19.7 98 +24 +24 комфорт 1023.3 1022.2 +18.6 +29.0
09 9.12 С 2 1000 м слабая морось 10/5 30 м
[Frnb As op]
+17.4 +17.1 98 +18 +18 1023.9 1022.7 4
12 9.12 С 2 1000 м слабая морось 10/5 <50 м
[Sc As op]
+16.4 +16.1 98 +16 +16 1025.3 1024.1 4
15 9.12 ЮЗ 2 8000 м {морось} 10/5 150 м
[Sc As op]
+16.6 +15.6 94 +17 +17 1028.0 1026.8 0.1
18 9.12 СЗ 3 8000 м {морось} 10/5 100 м
[Cu med, cong As trans]
+19.0 +17.5 91 +21 +23 комфорт 1028.0 1026.8 0.1
21 9.12 СЗ 3 8000 м 8/5 210 м
[Cu med, cong Ac trans]
+19.6 +18.0 90 +22 +24 комфорт 1026.4 1025.2
00 10.12 СЗ 2 7000 м 10/5 100 м
[Sc diur, vesp As op]
+18.2 +17.2 94 +19 +19 1027.1 1025.9 +15.2 +21.0
03 10.12 СЗ 2 1000 м 10/5 30 м
[Sc As op]
+17.6 +17.3 98 +18 +18 1028.6 1027.4
06 10.12 СЗ 2 1000 м 10/6 30 м
[Sc As op]
+16.6 +16.3 98 +17 +17 1028.7 1027.5 +15.2 +21.0
09 10.12 СЗ 2 1000 м 10/5 30 м
[Sc As op]
+16.4 +16.1 98 +16 +16 1028.5 1027.3
12 10.12 СЗ 1 1000 м 10/6 30 м
[Sc As op]
+16.2 +15.9 98 +17 +17 1029.0 1027.8 +14.8 +21.0
15 10.12 З 1 8000 м 9/3 90 м
[Sc Ac und]
+16.6 +15.9 96 +17 +19 1031.3 1030.1
18 10.12 н/о +18.4 +16.5 89 -33 -32 опасность
переохлаждения
1031.0 1029.8 +14.8 +19.8
21 10.12 ЮЗ 2 8000 м 10/3 240 м
[Frnb Ac und]
+19.6 +17.7 89 +23 +24 комфорт 1029.0 1027.8
00 11.12 ЮЗ 1 6000 м 9/1 100 м
[Cu med, cong Ac und]
+18.2 +17.2 94 +20 +20 1029.7 1028.5 +14.8 +20.6
03 11.12 СЗ 1 1000 м 10/5 60 м
[Sc As op]
+16.8 +16.5 98 +18 +18 1031.1 1029.9
06 11.12 СЗ 1 1000 м 10/6 60 м
[Sc As op]
+16.2 +15.9 98 +17 +17 1031.1 1030.1 +14.8 +20.6
09 11.12 штиль 0 1000 м 10/5 60 м
[Sc diur, vesp As op]
+16.0 +15.7 98 +16 +16 1030.1 1028.8
12 11.12 штиль 0 1000 м 10/5 60 м
[Sc As op]
+16.0 +15.7 98 +16 +16 1030.3 1029.0 +15.2 +20.6
15 11.12 штиль 0 8000 м 9/0 2000 м
[Ac und]
+16.4 +15.4 94 +16 +18 1031.7 1030.4
18 11.12 штиль 0 8000 м 9/4 300 м
[Sc Ac und]
+19.4 +17.1 87 +21 +25 комфорт 1030.1 1028.9 +15.2 +20.4
21 11.12 штиль 0 8000 м 9/4 240 м
[Frnb Ac und]
+20.8 +18.9 89 +25 +27 комфорт 1026.1 1024.9
00 12.12 штиль 0 8000 м 8/3 200 м
[Sc Ac und]
+20.6 +19.1 91 +24 +24 комфорт 1025.9 1024.7 +15.2 +22.2
03 12.12 ЮЗ 1 1000 м 5/3 120 м
[Sc diur, vesp Ac As]
+19.6 +18.7 95 +23 +23 комфорт 1026.7 1025.5
12 12.12 ЮЗ 1 1000 м 8/5 90 м
[Cu med, cong Ac As]
+17.4 +16.7 96 +18 +18 1024.0 1022.7 +17.2 +22.2
15 12.12 СЗ 1 8000 м 6/6 210 м
[Cu med, cong]
+18.8 +17.2 90 +21 +23 комфорт 1021.6 1020.4
18 12.12 СЗ 1 8000 м 6/5 240 м
[Cu med, cong As trans]
+22.2 +20.4 90 +29 +34 очень
душно
1019.9 1018.7 +16.8 +23.2
21 12.12 ЮВ 1 8000 м 6/3 210 м
[Cu hum As op]
+23.2 +21.7 91 +31 +35 очень
душно
1015.9 1014.7
00 13.12 ЮВ 1 7000 м 8/4 50 м
[Sc diur, vesp As op]
+22.2 +21.6 96 +29 +29 очень
душно
1014.8 1013.6 +16.8 +24.4
03 13.12 штиль 0 1000 м ясно +21.0 +20.4 96 +26 +26 душно 1015.7 1014.5

 

Местоположение метеостанции Tuxpan (Мексика): широта 20.95 долгота -97.40 высота над уровнем моря 28 м.

В архиве по умолчанию представлена погода в Tuxpan за последнюю неделю. Архивные данные за месяц целиком и за предыдущие месяцы, начиная с января 2011 года, Вы можете получить, выбрав интересующий диапазон дат из раскрывающегося списка и нажав кнопку "Ввод!".


*Определитесь, кто Вы:
робот инопланетянин человек

Внимание! Время в таблицах - всемирное. Для получения местного времени необходимо прибавить поправку, которая в Tuxpan равна -6 ч.

Смотрите также архив погоды в соседних городах и на ближайших метеорологических станциях:

Погода в Tulancingo (Мексика) (140 км)
Погода в Tampico (Мексика) (147 км)
Погода в Matlapa (Мексика) (152 км)
Погода в Jalapa (Мексика) (164 км)
Погода в Pachuca (Мексика) (168 км)
Погода в Tamuin (Мексика) (183 км)
Погода в Tlaxcala (Мексика) (202 км)
Погода в Tlaxcala Airport (Мексика) (202 км)
Погода в Puebla (Мексика) (226 км)
Погода в Cordoba-In-Veracruz (Мексика) (233 км)

Пояснения к столбцам:

Ветер - указаны скорость ветра в м/с - средняя за 10 мин, порывы в срок и между сроками (в фигурных скобках) и направление, откуда дует ветер: С - северный, СВ - северо-восточный, В - восточный, ЮВ - юго-восточный, Ю - южный, ЮЗ - юго-западный, З - западный, СЗ - северо-западный.
Видимость - горизонтальная дальность видимости в метрах или километрах. При видимости от 1 до 10 км при отсутствии осадков обычно наблюдается дымка, при ухудшении видимости до 1 км и менее - туман. В сухую погоду видимость может ухудшаться дымом, пылью или мглою.
Явления - указаны атмосферные явления, наблюдавшиеся в срок или в последний час перед сроком; фигурными скобками обозначены явления, наблюдавшиеся между сроками (за 1-3 часа до срока); квадратными скобками обозначены град или гололедные отложения с указанием их диаметра в мм.
Облачность - указаны через наклонную черту общая и нижняя облачность в баллах и высота нижней границы облаков в метрах; квадратными скобками обозначены формы облаков: Ci - перистые, Cs - перисто-слоистые, Cc - перисто-кучевые, Ac - высококучевые, As - высокослоистые, Sc - слоисто-кучевые, Ns - слоисто-дождевые, Cu - кучевые, Cb - кучево-дождевые. Подробнее классификацию облаков см. в Атласе облаков (PDF).
T - Температура воздуха - температура, измеренная на высоте 2 м над землей.
Td - Температура точки росы - температура, при понижении до которой содержащийся в воздухе водяной пар достигнет насыщения.
f - Относительная влажность воздуха - влажноcть воздуха, измеренная на высоте 2 м над землей.
Te - Эффективная температура - температура, которую ощущает одетый по сезону человек в тени. Характеристика душности погоды. При расчете учитывается влияние влажности воздуха и скорости ветра на теплоощущения человека.
Tes - Эффективная температура на солнце - температура, которую ощущает человек, с поправкой на солнечный нагрев. Характеристика знойности погоды. Зависит от высоты солнца над горизонтом, облачности и скорости ветра. Ночью, в пасмурную погоду, а также при ветре 12 м/с и более поправка равна нулю.
P - Атмосферное давление - приведенное к уровню моря атмосферное давление.
Po - Атмосферное давление - измеренное на уровне метеостанции атмосферное давление.
Tmin - Минимальная температура - минимум температуры воздуха на высоте 2 м над землей.
Tmax - Максимальная температура - максимум температуры воздуха на высоте 2 м над землей.
R - Количество осадков - Количество выпавших осадков за период времени, мм. При наведении курсора мыши на число - период времени, за который выпало указанное количество осадков.
R24 - Количество осадков - Количество выпавших осадков за 24 часа, мм.
S - Снежный покров - Высота снежного покрова, см. При наведении курсора мыши на число - состояние снежного покрова и степень покрытия местности в баллах.